Location: Treviso
(45.6669°N, 12.2430°E)
Time: 07:48:16
(UTC+01:00)

ISS - Pass Details

Date: 14 January 2018
Orbit: 402 x 407 km, 51.6° (Epoch: 21 January)

Event Time Altitude Azimuth Distance (km) Brightness Sun altitude
Exits shadow 04:43:45 11° 94° (E) 1,430 -0.2 -31.7°
Drops below altitude 10° 04:43:51 10° 95° (E) 1,464 -0.1 -31.7°
Sets 04:45:59 0° 102° (ESE) 2,323 1.1 -31.3°
